Theta_e
356 358 361 355 335 329 323 324 331 327 329 334 334 333 332 335 331 324 350 353 355 355 357 360 365 363 363 363 361 362 365 364 363 363 361 361 362 361 361 362 362 363 363 362 361 360 360 359 358
356 353 357 345 327 318 322 329 327 330 334 335 334 334 332 330 343 344 347 353 355 355 356 358 366 366 364 363 364 363 362 362 363 357 353 359 360 362 361 362 362 362 362 362 360 359 359 359 357
356 354 343 333 327 319 322 329 331 333 335 333 332 335 334 335 344 347 353 353 354 354 356 363 367 367 364 364 364 363 364 362 361 357 355 352 353 359 359 359 361 360 360 360 360 359 357 357 356
351 351 343 327 324 328 327 330 333 332 334 337 335 332 342 346 345 352 354 354 355 355 356 364 366 364 365 364 363 363 363 361 360 359 357 355 353 354 358 358 357 357 355 356 357 358 357 355 357
350 341 326 324 323 328 333 334 334 331 332 334 336 332 338 347 352 354 353 354 353 354 357 361 367 364 365 365 364 363 362 362 361 361 358 356 353 347 352 354 354 356 356 355 356 357 356 356 357
337 337 322 317 322 327 332 335 333 332 334 334 333 334 340 350 350 353 354 354 353 353 355 360 364 366 365 364 364 363 363 362 361 361 358 355 353 349 351 352 353 354 356 356 356 356 356 357 356
331 330 322 322 322 326 330 336 331 331 332 332 338 330 342 347 351 353 353 353 353 353 355 358 360 364 364 363 364 364 363 361 359 358 358 354 353 353 354 353 355 355 356 356 355 357 358 357 356
335 331 321 322 322 323 332 333 337 333 332 342 340 328 332 347 351 352 352 350 351 354 357 361 364 361 362 363 363 364 363 361 359 359 357 353 352 356 356 356 356 356 356 356 358 358 358 357 356
339 323 319 323 324 326 334 330 337 341 336 338 338 339 344 350 351 348 350 349 351 353 355 358 359 360 362 361 363 363 362 360 359 358 356 356 353 354 357 358 357 358 358 359 359 359 358 358 357
330 323 322 329 330 329 332 332 334 335 334 334 337 343 346 348 348 345 345 344 347 351 354 355 357 359 358 355 364 363 361 358 358 361 359 356 358 355 355 359 358 359 359 358 357 358 358 359 353
328 322 326 328 331 334 332 332 335 333 330 334 332 338 343 346 345 344 344 346 347 352 353 352 360 358 356 359 360 359 368 357 366 362 360 359 357 354 351 354 352 356 358 354 356 356 355 353 354
321 325 327 328 330 331 330 333 331 333 335 339 340 343 343 344 343 341 343 344 345 348 350 351 358 362 359 358 356 359 355 357 356 361 359 363 352 354 361 357 357 359 356 353 355 354 356 354 355
322 323 325 327 328 329 331 331 332 332 337 339 340 341 342 342 342 343 343 344 346 348 350 353 357 363 357 367 358 356 356 355 355 357 358 357 352 352 357 363 361 364 360 358 357 353 354 354 356
322 323 322 323 324 327 327 329 333 334 339 337 339 339 341 341 341 342 343 345 346 348 349 352 355 360 361 364 366 360 355 358 357 357 357 358 353 356 364 364 361 364 361 358 359 359 358 357 357
322 319 321 320 323 323 328 327 327 334 337 336 338 339 341 341 343 342 343 346 347 349 351 352 354 358 360 362 365 361 358 356 358 356 359 357 358 360 362 366 354 356 358 355 358 360 360 357 354
319 319 314 319 319 323 325 317 327 334 336 335 338 339 340 340 341 344 345 345 350 351 352 352 352 355 358 361 359 355 354 362 357 360 355 358 355 358 361 356 355 357 359 359 354 357 353 354 353
317 312 311 313 319 318 319 316 324 333 334 334 337 338 339 341 342 345 345 346 347 349 350 352 354 352 353 361 360 356 359 357 361 361 362 361 355 357 359 355 359 362 358 358 356 353 355 349 348
312 311 312 312 316 317 316 316 320 326 331 332 334 337 339 340 341 345 345 347 348 349 353 353 353 357 359 368 362 354 358 362 360 359 358 360 355 358 358 362 359 361 366 358 357 354 352 351 350
314 312 311 314 317 316 315 315 318 321 323 329 331 335 337 339 343 345 346 346 347 350 352 353 354 357 357 356 357 361 358 352 349 355 357 360 360 359 362 363 358 361 365 363 359 356 355 351 355
313 312 312 315 317 316 315 315 319 320 321 325 328 331 335 339 341 343 345 345 347 349 351 354 356 359 358 354 356 357 360 358 351 354 356 360 358 359 360 360 355 356 356 359 361 359 353 352 355
311 311 312 311 314 317 315 313 315 320 323 324 327 330 333 337 339 342 343 345 346 348 351 354 358 360 361 362 358 363 361 363 357 354 356 358 358 358 360 361 360 358 365 360 362 363 357 350 352
308 315 313 311 311 307 315 305 314 318 318 322 324 327 331 335 340 342 343 343 346 348 352 355 359 361 362 362 361 360 356 348 353 356 354 356 358 358 358 359 357 358 359 363 361 367 359 358 350
311 316 313 313 311 310 310 308 311 317 316 319 325 328 329 333 339 341 343 346 347 348 351 353 359 361 362 365 362 359 358 360 355 353 358 362 360 358 358 358 353 358 358 362 363 366 364 354 348
316 313 313 314 312 305 310 310 308 313 315 319 326 329 331 333 338 341 344 346 347 349 350 353 358 362 362 362 359 357 356 355 354 354 356 351 352 355 358 357 359 360 356 362 366 363 360 357 356
314 310 304 303 303 303 311 309 310 314 318 319 324 328 333 336 338 340 342 343 347 347 349 351 357 360 361 358 357 355 357 357 354 355 351 352 349 351 357 359 359 359 358 365 365 362 366 362 363
313 311 305 300 301 303 311 305 309 316 320 323 325 330 334 336 338 340 342 343 345 347 351 351 357 359 359 358 358 358 359 362 361 357 353 347 349 350 364 360 359 358 363 365 363 361 362 367 359
312 309 314 307 309 305 308 311 315 318 319 320 323 326 332 336 338 340 342 343 346 349 351 352 356 359 359 357 358 357 357 357 359 359 357 350 361 357 360 360 358 359 362 362 365 358 360 360 358
314 316 308 309 301 300 305 307 310 314 317 318 322 325 329 335 338 340 342 344 347 350 350 353 355 358 358 357 357 354 356 357 359 363 358 360 361 353 366 362 358 361 361 361 369 363 362 360 357
312 311 312 311 308 302 300 304 315 315 318 318 324 328 329 333 337 341 342 345 348 349 349 351 353 356 355 356 356 354 354 355 357 356 358 355 357 362 361 363 362 361 362 362 366 367 364 361 360
317 314 313 306 306 308 307 305 318 319 319 324 327 330 333 334 336 339 343 345 346 349 349 350 353 353 355 357 359 354 354 355 354 354 354 355 356 360 361 362 361 362 361 367 362 359 354 357 357
Wind_Speed
12 14 6 6 5 5 4 5 2 7 10 8 8 11 16 15 14 6 19 19 23 19 18 14 12 13 12 12 12 14 14 16 16 16 12 11 12 12 12 11 10 11 11 11 10 9 8 9 7
17 2 7 6 4 4 5 3 5 12 10 7 6 5 13 17 12 18 14 22 21 19 18 17 12 14 13 12 12 13 16 16 16 18 17 9 9 10 10 10 9 8 9 9 8 8 7 7 6
14 4 7 4 5 6 4 5 9 8 6 3 6 4 9 10 11 17 17 21 19 17 17 18 12 13 14 13 13 13 15 16 17 17 14 12 9 10 8 8 7 6 6 7 6 5 5 5 4
6 7 7 2 12 7 7 2 8 4 8 6 4 13 11 6 11 9 20 20 18 18 16 18 15 13 13 13 11 12 12 15 16 20 19 16 8 3 8 7 6 5 4 5 5 4 5 4 4
9 7 2 6 8 4 8 4 2 0 1 5 11 11 12 5 11 19 20 18 16 17 18 17 14 13 13 13 12 12 12 14 15 16 17 16 13 0 4 1 5 6 5 5 5 4 5 5 4
6 5 3 9 9 3 2 1 3 3 5 6 1 12 11 10 14 18 17 18 15 16 17 18 14 13 13 13 13 12 12 13 13 14 15 16 17 18 13 5 3 5 5 5 5 5 5 5 5
5 2 5 5 2 9 5 1 1 2 2 8 4 3 11 14 17 17 16 16 19 17 15 15 15 13 13 14 13 13 12 12 12 11 13 12 11 11 13 10 6 6 6 6 5 6 6 5 4
5 7 8 6 4 10 4 2 5 3 3 8 5 5 3 15 18 17 15 15 13 15 14 11 12 14 12 12 12 12 13 12 12 12 12 13 9 10 11 9 8 7 7 7 7 7 6 5 4
8 3 9 11 9 7 6 2 4 5 2 4 4 6 17 17 18 17 15 8 10 11 11 14 14 13 10 13 11 11 12 12 11 11 12 11 9 11 12 9 11 9 9 9 8 8 7 7 8
7 8 7 8 8 7 4 5 2 6 5 4 12 10 16 17 15 17 16 15 15 14 13 12 14 14 12 9 13 10 10 10 9 8 10 6 7 5 6 11 10 8 9 9 9 9 9 10 5
11 7 4 7 8 6 5 3 4 6 4 9 9 2 15 16 15 15 15 15 15 17 14 13 7 11 7 8 8 5 4 4 4 7 6 8 2 3 5 7 7 8 10 9 10 10 10 13 9
11 5 5 5 4 4 4 4 3 5 3 4 6 13 13 14 15 14 15 15 12 12 12 12 14 5 8 6 8 7 5 7 6 9 8 5 3 4 4 3 2 3 4 1 7 8 6 8 7
9 6 3 4 2 3 3 4 5 5 4 4 2 9 12 13 13 13 13 14 11 13 12 9 8 7 10 5 5 5 6 5 7 8 4 6 8 5 1 2 4 3 3 3 3 7 4 4 4
5 5 4 5 7 1 4 2 2 6 7 6 8 11 11 12 12 12 12 17 12 9 10 10 11 12 9 7 6 2 6 4 6 6 9 1 5 5 4 4 4 5 2 4 2 4 5 7 3
8 10 6 7 7 3 9 10 6 4 8 9 11 12 13 13 13 12 13 18 14 11 12 7 10 12 11 11 5 4 4 4 3 6 8 3 5 6 5 4 5 3 5 13 6 5 8 5 9
13 8 4 8 4 2 8 1 9 6 8 11 12 12 13 14 15 14 13 12 18 20 17 14 11 12 13 11 7 6 5 2 3 2 8 11 7 3 5 7 4 4 5 4 4 7 6 6 5
8 8 2 3 3 5 4 11 2 7 9 10 12 13 14 15 16 16 15 13 12 12 14 15 15 11 11 11 7 3 9 6 3 4 3 11 9 7 5 5 6 7 4 3 3 7 4 4 5
10 9 8 7 4 10 13 9 9 8 10 11 11 12 15 16 18 17 15 15 14 13 10 10 10 12 11 8 9 9 4 3 3 5 1 11 9 7 7 2 3 5 3 3 1 3 5 5 4
9 12 11 8 6 11 12 15 14 12 11 10 12 14 16 18 18 17 17 15 13 13 13 13 10 10 9 9 8 7 7 7 1 4 5 8 10 9 6 4 4 4 3 6 4 5 4 2 4
13 15 13 7 6 14 17 13 18 8 7 10 13 14 14 16 18 18 19 16 16 14 14 14 12 11 10 9 6 6 6 8 8 7 9 10 9 10 8 4 5 3 1 2 5 4 4 4 6
14 15 15 10 13 20 9 14 2 9 6 6 9 12 13 16 17 20 19 17 16 15 15 15 14 13 12 10 7 4 2 5 6 7 8 10 11 9 7 7 2 4 3 3 4 4 4 4 2
15 8 7 10 15 13 18 13 14 7 5 11 8 11 13 15 17 19 21 19 18 17 15 15 14 14 12 11 8 9 8 8 8 8 8 10 10 10 8 6 3 5 4 5 5 6 6 3 4
13 5 7 13 16 17 18 10 9 11 7 9 7 6 4 12 18 18 19 21 20 17 17 14 14 12 10 9 10 7 8 7 7 8 9 8 9 9 7 8 5 5 3 4 4 7 4 4 4
12 11 14 19 16 14 14 3 9 5 6 6 2 5 1 6 14 17 18 18 15 17 15 16 16 14 13 10 10 9 10 9 7 9 9 8 10 8 9 9 6 6 3 4 0 3 4 2 1
14 14 12 13 12 12 9 4 9 6 9 5 4 5 6 7 12 15 17 17 17 17 17 15 17 15 14 12 10 9 9 10 10 8 9 12 11 9 11 8 8 6 6 4 3 3 2 4 4
10 14 12 12 11 13 8 4 8 5 8 3 5 5 5 9 11 14 16 15 16 16 17 16 17 15 15 13 11 9 10 6 7 11 7 10 8 7 13 9 8 9 9 6 4 4 5 7 6
15 10 13 17 12 14 8 6 6 8 9 6 8 4 6 7 11 14 15 15 16 16 17 17 17 16 15 14 11 11 10 9 8 11 7 9 6 7 11 11 10 9 7 6 8 6 9 8 2
16 14 10 10 13 13 10 6 2 7 11 6 15 12 6 4 7 12 13 14 15 17 17 16 17 15 14 14 12 11 12 11 8 9 10 9 9 3 10 11 11 10 8 7 5 7 7 5 6
9 14 17 16 12 15 12 1 7 9 5 6 16 12 12 13 4 8 11 13 14 16 17 18 16 16 15 14 13 13 13 13 10 10 9 8 8 9 9 8 10 10 10 10 9 9 1 7 5
12 17 18 14 12 11 13 12 8 8 2 13 14 10 13 11 6 6 10 13 14 14 16 17 18 16 16 14 13 13 13 13 14 12 13 11 9 9 9 9 9 10 9 9 9 10 9 9 9
Wind_Direction
248 225 265 257 255 93 92 81 5 112 91 52 75 26 52 43 43 92 144 126 131 136 135 155 151 148 142 138 142 146 147 144 140 123 109 132 142 139 132 132 132 128 127 125 127 120 109 102 99
295 288 240 270 231 107 75 156 93 56 75 84 78 244 105 71 71 123 134 129 136 134 148 141 146 143 139 141 140 144 151 144 137 136 151 150 147 141 139 142 137 140 139 136 138 130 118 108 103
258 274 269 286 1 32 109 94 72 67 91 36 112 28 12 70 104 135 129 142 138 138 136 126 144 142 140 140 144 145 149 148 143 143 150 154 172 159 153 156 152 153 156 163 161 146 122 118 126
268 202 235 247 67 44 92 129 111 166 109 26 328 96 103 16 130 119 147 152 136 142 129 136 147 149 147 144 147 140 140 145 150 151 160 170 115 175 174 166 166 165 174 182 172 152 133 158 157
226 258 213 77 68 53 57 85 15 121 123 126 94 77 81 97 109 129 153 143 155 134 126 144 152 156 154 153 154 153 149 145 147 154 158 147 149 281 276 24 188 205 211 204 183 163 155 173 169
244 267 317 60 67 68 158 199 233 177 114 100 254 96 78 119 135 150 156 148 159 139 144 140 153 158 155 156 159 158 152 147 149 157 153 152 153 197 220 216 235 209 211 207 189 168 166 163 162
336 7 33 51 358 75 350 215 337 277 318 20 172 96 115 144 141 152 166 151 148 134 130 148 161 160 164 159 162 162 159 156 157 160 161 160 187 198 213 215 222 205 207 199 177 164 167 164 170
287 259 27 52 19 55 45 222 323 306 12 178 326 50 72 135 152 156 161 155 129 108 132 141 156 163 166 164 165 166 163 165 169 162 156 145 217 203 185 190 184 182 191 181 176 168 180 180 190
256 342 40 26 15 52 111 222 163 357 258 83 52 45 160 142 162 164 152 145 134 126 149 160 165 173 190 156 158 167 162 167 171 168 171 180 198 186 169 144 152 173 184 187 181 177 185 196 198
327 48 32 15 38 29 40 330 35 217 250 208 177 112 124 153 175 172 171 156 176 149 189 166 172 185 150 193 156 186 161 178 189 170 168 218 227 103 74 132 146 185 188 191 187 191 198 218 196
49 31 6 53 22 15 42 248 199 243 214 352 230 202 142 163 181 190 178 165 195 169 187 159 103 168 194 114 156 197 163 191 162 164 177 181 255 249 219 147 165 187 193 193 190 187 215 206 179
91 26 12 26 29 321 342 356 269 327 354 349 103 175 154 175 181 192 186 175 179 176 201 154 149 184 198 136 180 189 194 186 184 149 189 149 217 243 19 39 332 152 201 190 214 195 229 173 198
24 7 338 61 312 330 330 275 313 273 204 217 140 143 169 190 183 188 193 147 173 189 196 146 146 165 195 216 223 167 159 202 142 159 167 172 205 157 203 287 297 289 257 225 195 219 201 228 240
334 299 54 42 29 256 284 265 222 143 184 185 169 176 175 192 185 182 195 159 171 188 172 167 169 179 192 227 250 214 174 253 127 144 176 188 238 118 184 183 227 240 233 195 202 230 212 217 270
288 278 140 57 8 351 314 224 209 199 184 186 183 187 180 188 180 186 202 162 173 179 178 167 195 159 183 201 184 280 174 169 180 188 127 144 214 185 195 209 205 205 218 205 180 200 214 200 236
242 238 259 81 344 63 303 41 147 168 205 201 192 188 189 192 184 186 194 197 176 191 158 194 189 164 178 189 172 228 235 177 196 177 176 161 212 276 198 228 170 213 228 226 170 221 197 204 161
191 261 70 329 141 301 271 313 138 193 210 227 190 199 197 193 201 182 186 198 196 195 172 188 168 168 172 165 157 202 288 204 273 176 157 166 184 202 255 249 156 207 233 217 189 217 206 157 201
346 326 339 305 27 322 307 289 286 203 200 223 229 213 195 202 201 180 203 185 199 178 174 192 184 161 146 157 175 191 231 250 274 286 141 158 182 171 224 286 220 226 280 254 156 137 206 175 212
317 282 288 299 6 271 304 288 295 277 234 206 233 213 210 203 196 195 189 185 188 176 178 176 199 177 173 164 185 200 181 204 259 277 245 195 158 187 201 215 206 221 208 244 160 178 238 56 211
277 279 275 291 331 306 288 305 269 267 258 222 219 230 220 207 197 189 185 191 192 181 175 179 194 182 193 197 197 192 198 177 183 215 223 210 165 207 182 204 167 211 222 275 199 217 209 220 205
250 262 282 323 310 283 278 283 320 217 167 259 244 236 231 204 202 184 186 189 188 187 180 181 190 185 200 236 156 180 196 161 183 201 209 210 175 185 172 191 278 179 195 221 255 209 218 249 249
271 270 328 292 296 306 310 291 266 108 228 223 240 221 208 210 199 191 187 190 188 197 181 183 187 192 196 208 183 191 206 184 203 188 199 178 180 190 179 169 184 229 259 143 206 219 204 275 254
259 257 274 280 282 283 285 270 346 154 200 31 15 15 264 195 188 203 191 183 192 188 179 183 182 182 214 197 255 186 205 198 183 190 197 173 164 188 172 184 157 221 222 213 193 190 244 162 251
278 284 272 257 253 258 253 291 290 92 55 5 94 97 254 189 181 193 184 187 190 184 178 179 177 189 193 191 208 235 193 189 188 202 174 182 168 182 184 184 164 224 209 234 186 115 167 183 280
229 250 266 261 220 255 118 314 357 7 82 344 2 92 145 179 177 183 188 192 181 189 178 182 176 188 194 194 203 211 188 191 185 180 198 181 171 175 166 184 187 167 195 199 177 167 230 196 202
267 242 262 313 299 318 340 283 109 37 79 25 41 103 137 177 175 184 190 191 177 190 179 190 172 185 192 191 201 192 181 200 195 184 214 186 169 178 150 181 186 174 178 189 167 218 210 199 191
261 219 272 281 291 264 256 243 251 147 120 38 51 36 150 192 183 190 185 190 175 190 185 189 176 189 191 188 189 187 188 186 202 203 213 195 150 122 161 172 183 178 191 200 170 210 238 197 238
258 294 293 242 248 262 293 308 5 154 62 20 68 16 17 192 215 190 189 189 180 187 185 189 182 187 190 188 185 188 182 183 185 217 195 209 149 88 157 172 186 178 197 200 237 249 188 198 252
197 229 227 252 285 305 288 81 92 204 92 30 63 25 24 346 204 218 200 183 186 190 190 182 181 183 187 193 184 185 183 183 177 191 210 203 188 179 169 189 191 195 194 202 205 258 252 217 239
278 293 292 286 262 236 270 283 337 146 350 81 59 40 13 1 326 275 201 191 189 198 198 189 174 190 192 191 178 184 189 185 182 190 195 196 195 192 205 199 213 210 214 211 221 227 255 222 232